FENGYUN 1C DEB, 31851

Orbit data source: Space-Track

FENGYUN 1C DEB, 31851 is space debris in SSO originally from a launch on Mon, 10 May 1999 UTC launched from the Taiyaun Space Center, China (TSC). Fengyun 1C debris stems from the Chinese weather satellite Fengyun-1C, which was intentionally destroyed by a Chinese anti-satellite missile in 2007. This event dramatically increased the amount of space debris, with thousands of trackable fragments posing hazards to satellites and human spaceflight. The Fengyun 1C debris cloud has become a focal point in discussions about space sustainability and the need for international regulations to prevent the creation of new debris.

Loading next visibility...
Identifier
31851, 1999-025CJR
Orbit
SSO
Country
Flag of CNCN / PRC
Related business
Manufacturer
Unknown
Mission
Spacecraft
Bus & Motor
Unknown
Mass
Unknown
Launch date (UTC)
1999-05-10 (27 years ago)
Launch vehicle
Unknown
Launch site
Taiyaun Space Center, China (TSC)
Object type
Payload
Rocket body
Debris
Shape & HBR
Unknown shape, 1.1 m
Radar Cross Section
Medium (>0.1 m² and <1 m²)

Expand to show TLE details & history
Last TLE update: 1 month ago

TLE from 1 month ago
0 FENGYUN 1C DEB
1 31851U 99025CJR 26174.37811094  .00002008  00000-0  15580-2 0  9997
2 31851  98.7874  22.1027 0200908 118.9912 243.1545 13.84589353641326
Epoch: 2026-06-23T09:04Z
TLE epoch observation values (Epoch: 2026-06-23T09:04:28.785Z)
Latitude
-0.00004°
Longitude
-25.56777°
Altitude
1,019.32 km
Speed
7.308 km/s
True Right ascension
01h 28m 24s
True Declination
0° 00' 00"
Sunlit
Object was in daylight at epoch
Visualization orbit readout
Latitude
Unknown
Longitude
Unknown
Altitude
Unknown
Speed
Unknown
Apparent Right ascension
Unknown
Apparent Declination
Unknown
Sunlit
N/A
Visualization observer readout
Local Sidereal Time
02:44:48
Azimuth
Unknown
Elevation
Unknown
Doppler factor
Unknown
Orbital elements
Apogee altitude
1,091.987 km
Perigee altitude
797.737 km
Semi-major axis
7,322.999 km
Eccentricity
0.02009
Inclination
98.7874°
RAAN
22.1027°
Arg. of periapsis
118.9912°
True anomaly
241.12385°
Mean anomaly
243.1545°
Eccentric anomaly
242.13684°
Mean motion
3.46346 °/min
Orbital period
103.94 mins
BSTAR
0.001558
Loading maneuver chart data...
Computing Atmospheric mass density...

Documentation

Showing up to 5 results
|